Lexington Weather

Lexington, Massachusetts, USA

46°F
12/8/2022 3:51pm 
  • Lexington Conditions: Clear
  • Temperature: 45.9°F / 7.7°CColder 2.7°F than last hour.
  • Dew Point: 34.0°FDecreased 1.8°Fsince last hour.
  • Relative Humidity: 63%Increased 2.0% since last hour.
  • Wind: Wind from NNE NNE 6 mph, 10-min avg: 2 mph, gust: 11 mph
  • Barometer: 30.10 inRising 0.03  inHg/hr Rising Slowly
  • Visibility: 10 miles
  • Rain Today: 0.00 in
  •   

Regional Weather Roundup
for Boston, MA

        
000
ASUS41 KBOX 070910
RWRBOX

REGIONAL WEATHER ROUNDUP
NATIONAL WEATHER SERVICE BOSTON/NORTON MA
400 AM EST WED DEC 07 2022

NOTE:  "FAIR" INDICATES FEW OR NO CLOUDS BELOW 12,000 FEET WITH NO 
SIGNIFICANT WEATHER AND/OR OBSTRUCTIONS TO VISIBILITY.

MAZALL-071000-
EASTERN MASSACHUSETTS
  
CITY           SKY/WX    TMP DP  RH WIND       PRES   REMARKS
BOSTON         RAIN      48  47  96 E8        30.33F FOG              
BEVERLY        HVY RAIN  49  48  97 SE14      30.32F FOG              
LAWRENCE       RAIN      50  47  89 SE9G21    30.33F FOG              
BEDFORD        RAIN      51  47  86 SE9       30.30S FOG              
NORWOOD        RAIN      51  48  89 SE9       30.31F FOG              
MARSHFIELD       N/A     50  48  93 SE9       30.33F FOG              
PLYMOUTH       LGT RAIN  51  48  89 SE7       30.32F                  
TAUNTON          N/A    N/A N/A N/A MISG      30.31F                  
NEW BEDFORD    LGT RAIN  51  50  96 SE13      30.31F                  
$$

MAZALL-071000-
CAPE COD AND THE ISLANDS
  
CITY           SKY/WX    TMP DP  RH WIND       PRES   REMARKS
FALMOUTH       NOT AVBL                                               
HYANNIS        LGT RAIN  50  49  96 E8        30.33F                  
CHATHAM        LGT RAIN  53  49  86 E8        30.37F                  
PROVINCETOWN   LGT RAIN  50  50 100 SE12      30.36F                  
NANTUCKET      CLOUDY    54  51  90 E14       30.34F                  
MARTHAS VNYRD  RAIN      52  50  93 SE12      30.33F FOG              
$$
 
MAZALL-071000-
CENTRAL AND WESTERN MASSACHUSETTS
  
CITY           SKY/WX    TMP DP  RH WIND       PRES   REMARKS
WORCESTER      LGT RAIN  50  48  93 SE8       30.26F VSB 1/2          
FITCHBURG      RAIN      48  45  89 E6        30.29F FOG              
ORANGE         LGT RAIN  50  48  93 SE3       30.25F FOG              
SPRINGFIELD    RAIN      53  53  99 S8        30.19F                  
WESTFIELD      LGT RAIN  52  51  97 VRB5      30.21F FOG              
NORTH ADAMS    LGT RAIN  54  50  86 E10G26    30.17F                  
PITTSFIELD     LGT RAIN  53  50  89 SE9       30.17F FOG              
$$
 
RIZALL-071000-
RHODE ISLAND
  
CITY           SKY/WX    TMP DP  RH WIND       PRES   REMARKS
PROVIDENCE     LGT RAIN  52  51  97 SE9       30.30F FOG              
NEWPORT        RAIN      51  50  96 SE12G22   30.29F FOG              
BLOCK ISLAND   LGT RAIN  54  54 100 SE16      30.29F                  
SMITHFIELD     LGT RAIN  51  51 100 VRB7      30.29F                  
WESTERLY       RAIN      55  54  96 SE9       30.28S FOG              
$$
 
CTZALL-071000-
CONNECTICUT
  
CITY           SKY/WX    TMP DP  RH WIND       PRES   REMARKS
BRADLEY INTL   LGT RAIN  55  53  93 SE9       30.22F FOG              
HARTFORD       LGT RAIN  56  53  90 S10       30.22F FOG              
BRIDGEPORT     LGT RAIN  55  55 100 S12       30.21F                  
DANBURY        LGT RAIN  57  54  89 S6        30.20F FOG              
GROTON         RAIN      56  54  93 SE13      30.27S FOG              
NEW HAVEN      LGT RAIN  57  56  96 SE9       30.23F FOG              
CHESTER        LGT RAIN  55  55 100 SE10      30.25F                  
MERIDEN        LGT RAIN  56  53  90 S8        30.22F FOG              
WILLIMANTIC    RAIN      55  54  96 S9        30.26F FOG              
OXFORD         LGT RAIN  54  54 100 S13G18    30.21F FOG              
$$

MEZ002-015-021-024-NHZ003-005-008-011-012-014-VTZ005-008-071000-
NORTHERN NEW ENGLAND
  
CITY           SKY/WX    TMP DP  RH WIND       PRES   REMARKS
PORTLAND ME    LGT RAIN  46  44  93 SE10      30.37F                  
BANGOR ME      LGT RAIN  43  41  93 E5        30.42F                  
CONCORD NH     LGT RAIN  48  47  96 SE8       30.29F FOG              
MANCHESTER NH  RAIN      50  47  89 SE9       30.29S FOG              
NASHUA NH      RAIN      49 N/A N/A SE7       30.31S                  
PORTSMOUTH NH  LGT RAIN  48  47  94 SE16      30.33F FOG              
JAFFREY NH     LGT RAIN  49  45  86 VRB3      30.25F                  
KEENE NH       LGT RAIN  49  48  97 SE9         N/A                   
BURLINGTON VT  RAIN      49  46  90 SE7       30.15S FOG              
MT. WASHINGTON FRZ RAIN  28  28 100 S53         N/A  VSB 0   WCI   9  
$$

NYZ052-076-071000-
EASTERN NEW YORK
  
CITY           SKY/WX    TMP DP  RH WIND       PRES   REMARKS
ALBANY         CLOUDY    55  52  89 S6        30.13F                  
NEW YORK CITY  LGT RAIN  57  54  89 S12       30.19S                  
$$
 
ANZALL-071000-
MARINE OBSERVATIONS
  
STATION/POSITION TIME  TEMP    WIND        PRES    VSBY  WAVE
                       AIR SEA DIR/SP/G                  HT/PER
                 (UTC) (F)     (DEG/KT/KT) (MB)    (MI)  (FT/S)
BOSTON BUOY      0850          110/ 16/ 19 1027.8F         5/ 6
BUZZARDS BAY     0800   52     130/ 20/ 22 1026.4F
NANTUCKET SOUND  0850   51 49  100/ 10/ 12 1027.6F         1/ 3
MASS BAY-STELLWA 0704   50 50  120/ 14/ 16 1027.9S  1 7/8  5/ 6
ISLE OF SHOALS   0800   49     120/ 18/ 20 1027.3F
S OF BLOCK IS    0856      55                N/A           6/10
$$

......................KEY.........................
  SKY/WX - SKY CONDITION/PRESENT WEATHER
  TMP    - TEMPERATURE IN FAHRENHEIT
  DWPT   - DEWPOINT IN FAHRENHEIT
  RH     - RELATIVE HUMIDITY IN PERCENT
  WIND   - DIRECTION AND SPEED IN MPH
  PRES   - MEAN SEA LEVEL PRESSURE IN INCHES OF HG
  WCI    - WIND CHILL INDEX
  VSB    - VISIBILITY IN MILES
  HX     - HEAT INDEX
  TC     - TEMPERATURE IN CELSIUS
  VRB    - VARIABLE WIND DIRECTION
  N/A    - NOT AVAILABLE
  
      

Other recent Regional Weather Roundups

Thu Dec 8, 3:10pm

Thu Dec 8, 2:10pm

Thu Dec 8, 1:10pm

Thu Dec 8, 12:10pm

Thu Dec 8, 11:10am

Thu Dec 8, 10:10am

Thu Dec 8, 9:10am

Thu Dec 8, 8:10am

Thu Dec 8, 7:10am

Thu Dec 8, 6:10am

Thu Dec 8, 5:10am

Thu Dec 8, 4:10am

Thu Dec 8, 3:10am

Thu Dec 8, 2:10am

Thu Dec 8, 1:10am

Thu Dec 8, 12:10am

Wed Dec 7, 11:10pm

Wed Dec 7, 10:10pm

Wed Dec 7, 9:10pm

Wed Dec 7, 8:10pm

Wed Dec 7, 7:10pm

Wed Dec 7, 6:10pm

Wed Dec 7, 5:10pm

Wed Dec 7, 4:10pm

Wed Dec 7, 3:10pm

Wed Dec 7, 2:10pm

Wed Dec 7, 1:10pm

Wed Dec 7, 12:10pm

Wed Dec 7, 11:10am

Wed Dec 7, 10:10am

Wed Dec 7, 9:10am

Wed Dec 7, 8:10am

Wed Dec 7, 7:10am

Wed Dec 7, 6:10am

Wed Dec 7, 5:10am

Wed Dec 7, 3:10am

Wed Dec 7, 2:10am

Wed Dec 7, 1:10am

Wed Dec 7, 12:10am

Tue Dec 6, 11:10pm

Tue Dec 6, 10:10pm

Tue Dec 6, 9:10pm

Tue Dec 6, 8:10pm

Tue Dec 6, 7:10pm

Tue Dec 6, 6:10pm

Tue Dec 6, 5:10pm

Tue Dec 6, 4:10pm

Tue Dec 6, 3:10pm

Tue Dec 6, 2:10pm

Tue Dec 6, 1:10pm

Tue Dec 6, 12:10pm

Tue Dec 6, 11:10am

Tue Dec 6, 10:10am

Tue Dec 6, 9:10am

Tue Dec 6, 8:10am

Tue Dec 6, 7:10am

Tue Dec 6, 6:10am

Tue Dec 6, 5:10am

Tue Dec 6, 4:10am

Tue Dec 6, 3:10am

Tue Dec 6, 2:10am

Tue Dec 6, 1:10am

Tue Dec 6, 12:10am

Mon Dec 5, 11:10pm

Mon Dec 5, 10:10pm

Mon Dec 5, 9:10pm

Mon Dec 5, 8:10pm

Mon Dec 5, 7:10pm

Mon Dec 5, 6:10pm

Mon Dec 5, 5:10pm

Mon Dec 5, 4:10pm

Mon Dec 5, 3:10pm

Mon Dec 5, 2:10pm

Mon Dec 5, 1:10pm

Mon Dec 5, 12:10pm

Mon Dec 5, 11:10am

Mon Dec 5, 10:10am

Mon Dec 5, 9:10am

Mon Dec 5, 8:10am

Mon Dec 5, 7:10am

Mon Dec 5, 6:10am

Mon Dec 5, 5:10am

Mon Dec 5, 4:10am

Mon Dec 5, 3:10am

Mon Dec 5, 2:10am

Mon Dec 5, 1:10am

Mon Dec 5, 12:10am

Sun Dec 4, 11:10pm

Sun Dec 4, 10:10pm

Sun Dec 4, 9:10pm

Sun Dec 4, 8:10pm

Sun Dec 4, 7:10pm

Sun Dec 4, 6:10pm

Sun Dec 4, 5:10pm

Sun Dec 4, 4:10pm

Sun Dec 4, 3:10pm

Sun Dec 4, 2:10pm

Sun Dec 4, 1:10pm

Sun Dec 4, 12:10pm

Sun Dec 4, 11:10am

Sun Dec 4, 10:10am

Sun Dec 4, 9:10am

Sun Dec 4, 8:10am

Sun Dec 4, 7:10am

Sun Dec 4, 6:10am

Sun Dec 4, 5:10am

Sun Dec 4, 4:10am

Sun Dec 4, 3:10am

Sun Dec 4, 2:10am

Sun Dec 4, 1:10am

Sun Dec 4, 12:10am

Sat Dec 3, 11:10pm

Sat Dec 3, 10:10pm

Sat Dec 3, 9:10pm

Sat Dec 3, 8:10pm

Sat Dec 3, 7:10pm

Sat Dec 3, 6:10pm

Sat Dec 3, 5:10pm

Sat Dec 3, 4:10pm

Sat Dec 3, 3:10pm

Sat Dec 3, 2:10pm

Sat Dec 3, 1:10pm

Sat Dec 3, 12:10pm

Sat Dec 3, 11:10am

Sat Dec 3, 10:10am

Sat Dec 3, 9:10am

Sat Dec 3, 8:10am

Sat Dec 3, 7:10am

Sat Dec 3, 6:10am

Sat Dec 3, 5:10am

Sat Dec 3, 4:10am

Sat Dec 3, 3:10am

Sat Dec 3, 2:10am

Sat Dec 3, 1:10am

Sat Dec 3, 12:10am

Fri Dec 2, 11:10pm

Fri Dec 2, 10:10pm

Fri Dec 2, 9:10pm

Fri Dec 2, 8:10pm

Fri Dec 2, 7:10pm

Fri Dec 2, 6:10pm

Fri Dec 2, 5:10pm

Fri Dec 2, 4:10pm

Fri Dec 2, 3:10pm

Fri Dec 2, 2:10pm

Fri Dec 2, 1:10pm

Fri Dec 2, 12:10pm

Fri Dec 2, 11:10am

Fri Dec 2, 10:10am

Fri Dec 2, 9:10am

Fri Dec 2, 8:10am

Fri Dec 2, 7:10am

Fri Dec 2, 6:10am

Fri Dec 2, 5:10am

Fri Dec 2, 4:10am

Fri Dec 2, 3:10am

Fri Dec 2, 2:10am

Fri Dec 2, 1:10am

Fri Dec 2, 12:10am

Thu Dec 1, 11:10pm

Thu Dec 1, 10:10pm

Thu Dec 1, 9:10pm

Thu Dec 1, 8:10pm

Thu Dec 1, 7:10pm

Thu Dec 1, 6:10pm

Thu Dec 1, 5:10pm

Thu Dec 1, 4:10pm

Meta data:

ID: e8cc1965-d4d3-4918-9ebb-d536b0490bef
Link: https://api.weather.gov/products/e8cc1965-d4d3-4918-9ebb-d536b0490bef